Wind_Speed
18 17 18 16 15 17 18 18 18 17 16 16 17 21 21 18 19 21 19 18 19 16 14 15 16 16 19 20 19 19 20 20 19 20 20 21 22 23 23 23 23 22 22 21 21 21 21 21 21 20 20 20 20 21 21 21 21 21 21 21 21 22 23 25 26 26 26 27 29 30 31 32 33 32 31 32 34 36 37 39 40 39 40 41 39 38 39
18 18 18 17 16 18 19 20 21 21 21 20 21 22 22 22 25 24 22 23 24 19 14 16 18 18 20 21 21 22 23 24 23 23 24 24 24 25 26 27 27 27 26 25 25 25 25 25 25 25 25 24 24 24 24 24 25 25 25 26 26 26 26 27 27 28 29 30 31 32 33 34 34 34 34 34 34 35 37 39 41 42 42 43 42 41 42
19 18 18 19 18 19 21 22 22 21 21 23 25 26 25 26 29 29 28 32 34 28 22 22 24 24 24 24 25 26 27 27 26 25 25 26 26 25 26 26 26 27 27 28 29 28 27 26 26 26 27 28 29 30 30 30 30 29 29 29 30 30 31 31 31 32 32 33 34 34 36 37 38 38 38 38 37 36 37 39 41 43 44 44 44 43 44
19 17 16 18 17 19 24 25 24 24 25 26 28 28 29 31 34 35 33 34 34 30 25 25 27 29 29 29 30 30 29 27 26 27 28 27 26 26 26 25 26 26 25 25 26 25 24 24 23 23 23 24 25 27 27 29 30 30 31 32 32 33 34 34 34 35 36 36 37 38 39 40 40 40 40 40 39 38 38 38 39 42 42 41 41 42 43
19 14 12 13 12 15 19 20 21 24 26 28 28 28 29 30 32 31 29 27 26 23 22 24 24 24 28 30 30 31 30 28 28 29 29 29 28 27 26 26 26 25 25 24 23 23 22 22 22 21 22 22 23 23 24 25 26 27 28 29 29 30 31 32 33 34 36 37 38 40 40 41 41 41 41 41 41 40 40 40 40 41 40 39 39 39 40
17 12 8 9 11 12 11 10 13 16 19 22 24 24 24 24 26 29 28 27 27 25 25 27 26 26 30 31 30 30 30 29 29 30 30 29 28 27 27 27 27 26 25 24 23 23 23 22 23 23 23 24 24 25 25 26 26 26 26 27 27 28 28 29 31 33 34 35 37 38 39 39 40 40 40 41 41 41 41 42 43 42 42 41 40 39 38
16 12 9 8 9 9 8 9 9 8 10 13 17 19 21 23 26 29 30 29 29 30 31 33 33 33 33 31 29 29 29 29 28 28 28 28 28 28 28 28 27 27 25 25 24 24 25 25 26 26 27 27 27 27 27 26 26 27 27 27 27 28 28 29 30 32 33 34 35 36 37 37 38 38 39 39 39 39 40 41 42 42 43 43 42 41 39
14 13 12 10 7 6 7 10 11 11 12 13 14 16 19 22 24 24 24 22 22 24 26 26 25 25 25 24 25 26 27 27 27 25 25 28 30 29 29 28 27 27 26 26 26 26 27 27 28 28 29 29 29 28 28 27 26 26 26 27 27 28 29 30 31 32 33 34 35 35 36 36 37 38 38 39 39 39 40 40 41 41 41 41 42 41 41
14 16 17 16 15 14 12 12 15 15 13 13 14 14 15 18 21 20 17 14 13 13 15 16 16 15 14 15 18 23 26 26 27 27 28 30 30 29 29 28 27 27 27 27 28 28 28 29 29 29 30 30 30 29 28 28 27 27 27 27 27 28 29 31 31 32 33 34 35 36 36 37 37 38 39 40 40 41 41 42 42 42 42 42 42 41 40
13 15 16 15 14 13 9 8 10 9 9 10 13 15 15 16 19 19 15 11 8 7 9 12 13 12 14 13 13 18 25 26 27 29 29 29 30 29 29 29 28 29 29 30 30 31 30 30 30 30 30 30 30 29 29 28 28 28 28 28 28 29 30 32 33 33 34 36 36 37 37 37 38 38 39 40 41 42 42 42 42 43 43 42 42 41 41
14 14 14 13 13 12 10 9 8 8 9 10 10 12 13 13 13 15 13 9 7 8 12 14 13 14 17 15 12 16 23 24 26 28 28 28 30 30 30 31 31 32 32 32 32 31 31 31 30 30 31 30 30 30 30 29 29 29 29 29 29 31 32 33 34 35 36 37 38 38 38 38 38 38 38 39 41 42 43 43 42 42 41 40 40 40 39
16 15 16 16 14 13 13 14 12 11 11 10 8 8 9 12 13 11 9 7 6 9 15 17 15 16 17 15 16 20 22 23 25 27 27 28 29 29 30 32 34 35 35 34 33 32 32 32 31 31 31 32 32 33 33 33 33 32 32 33 34 35 35 35 36 37 38 39 39 39 39 39 39 38 38 38 38 40 41 41 41 40 39 37 37 37 36
17 17 18 17 15 13 13 16 16 15 14 12 12 10 8 12 14 12 11 10 9 10 14 14 12 13 16 18 23 25 24 23 25 28 28 28 29 31 33 34 35 36 36 36 36 34 33 32 31 32 33 34 36 36 36 37 37 36 37 38 38 38 38 38 39 39 40 41 41 41 41 40 39 37 36 36 36 36 37 38 39 37 35 34 34 34 34
16 17 17 17 14 11 12 14 15 14 12 9 10 12 12 13 15 16 17 17 14 14 16 16 16 18 20 24 27 28 27 26 26 27 29 30 32 33 35 36 36 37 37 38 37 36 34 33 32 32 34 37 38 39 40 40 40 40 41 42 41 41 41 41 41 41 42 42 43 43 43 41 39 37 36 35 34 34 34 35 35 34 33 33 32 32 33
14 14 15 13 11 9 11 12 10 9 9 9 10 13 14 15 17 19 20 20 19 19 19 19 22 24 24 25 27 27 28 28 27 28 29 30 31 33 33 34 34 35 36 36 36 36 35 34 34 36 37 39 41 42 43 43 42 43 43 43 43 43 43 43 42 42 42 43 43 43 42 40 38 36 35 34 34 34 34 34 33 32 32 32 31 32 34
10 13 12 9 7 8 9 9 7 7 10 14 15 14 14 17 21 23 23 24 24 24 24 24 25 26 26 26 27 27 28 28 29 30 30 31 32 33 33 34 34 35 36 36 37 37 37 37 38 39 40 42 43 45 46 45 44 44 44 44 44 44 43 42 41 41 41 42 41 41 40 38 37 36 35 35 35 35 34 33 32 31 31 31 32 32 32
9 14 15 12 11 11 11 11 11 12 15 20 22 21 19 21 24 26 26 26 26 27 29 31 31 31 31 31 31 31 32 33 33 34 34 34 35 35 36 36 37 37 38 38 39 40 40 39 39 40 41 43 45 46 47 45 44 44 44 43 43 43 42 41 40 40 40 40 39 38 37 36 36 35 36 36 35 34 33 32 32 31 30 30 30 29 29
13 16 16 14 15 15 13 13 15 16 19 25 28 28 27 27 27 28 30 31 29 29 30 32 33 34 34 34 33 33 33 33 34 34 34 34 34 34 34 34 35 36 37 38 39 40 40 40 39 40 41 42 43 45 45 43 42 42 42 42 43 42 40 40 40 40 39 38 37 36 35 35 34 34 34 33 31 30 30 30 31 30 29 28 27 28 30
14 13 12 11 13 15 16 16 17 18 21 24 24 25 28 30 31 33 35 35 34 34 34 35 34 34 34 34 33 33 32 33 33 32 32 31 31 31 32 32 32 34 35 36 37 37 37 37 38 39 39 40 41 41 41 40 40 40 41 42 43 41 40 40 40 39 37 35 34 33 33 33 31 30 29 28 27 26 26 28 28 27 25 25 27 29 30
13 14 14 15 17 17 16 16 16 17 19 20 20 22 26 30 32 33 33 34 34 34 34 34 33 33 33 33 33 33 33 33 33 32 31 31 31 31 31 31 32 33 34 35 36 35 35 34 34 35 36 37 37 37 37 38 39 40 41 41 41 41 41 40 39 37 34 32 31 31 31 29 26 24 24 23 23 22 22 23 23 22 23 25 28 28 27
14 14 14 15 17 17 16 16 18 20 21 23 25 27 28 29 30 30 31 32 32 32 32 32 32 32 32 32 33 33 33 33 33 32 31 32 32 32 32 33 33 34 35 35 34 34 33 32 31 32 33 34 34 34 35 37 38 39 39 40 40 40 39 37 36 34 32 31 30 29 27 24 22 21 21 21 21 22 21 21 22 23 24 25 24 23 21
14 15 15 17 20 22 22 21 23 24 25 27 29 30 30 30 30 31 32 33 33 33 32 31 31 32 32 32 32 32 33 33 32 32 32 33 33 32 32 33 34 34 34 33 32 31 31 30 30 30 31 32 32 32 33 35 36 36 37 37 36 34 31 29 28 26 25 25 25 24 24 24 23 22 22 22 22 22 22 23 24 23 20 17 16 15 15
18 20 21 22 25 28 28 27 28 28 28 30 31 31 31 31 32 32 33 34 34 34 33 31 31 31 31 31 31 32 32 32 32 33 33 33 33 32 33 33 34 33 32 32 31 30 30 30 29 29 29 29 29 30 33 34 33 32 32 29 25 21 18 17 18 20 21 22 23 24 25 25 24 24 25 25 23 20 19 19 18 16 14 12 12 13 13
23 24 25 25 27 29 31 30 31 31 30 31 31 31 30 30 31 31 32 33 34 35 33 32 31 31 31 30 31 32 32 31 32 32 32 32 32 32 32 32 33 32 32 31 30 29 28 27 26 25 26 25 26 29 31 30 27 25 23 18 14 12 13 15 17 20 22 24 26 27 26 26 24 24 25 25 22 20 17 16 14 13 13 12 12 11 11
26 25 26 27 29 30 31 31 31 30 28 28 29 29 28 30 32 34 35 36 36 35 32 31 30 30 30 30 30 31 31 30 30 31 31 31 31 31 30 30 31 31 31 29 27 26 26 24 23 23 22 23 24 25 23 19 16 15 13 11 12 12 12 15 19 22 24 25 26 26 25 24 23 21 20 19 18 17 16 15 13 12 12 11 10 10 10
28 27 27 27 28 28 28 28 27 26 23 23 26 26 26 28 31 33 34 33 31 29 28 27 27 27 28 29 30 30 30 30 30 31 31 30 29 29 28 28 28 28 28 26 25 25 23 22 21 21 19 18 17 13 7 6 8 12 15 17 19 20 20 21 21 22 24 24 23 22 21 20 19 18 16 14 14 13 13 12 11 10 10 10 10 10 10
27 25 24 25 25 24 23 24 24 24 22 22 24 25 25 25 24 23 22 22 21 21 21 22 24 26 26 27 28 29 30 30 30 30 29 29 28 27 27 26 26 26 25 25 24 23 21 20 20 19 16 13 10 12 18 21 23 25 26 26 26 25 25 25 23 22 22 21 20 19 18 17 16 15 14 13 13 12 11 11 10 10 10 10 9 9 8
25 21 19 21 22 22 21 23 24 24 23 22 23 23 22 20 18 17 16 16 17 18 19 20 23 25 26 27 28 29 30 29 29 28 27 27 27 27 26 25 24 23 23 23 22 20 19 19 18 16 14 15 18 22 25 27 27 28 29 29 28 26 25 25 24 22 21 20 19 18 17 16 15 14 13 13 13 12 12 11 10 10 9 7 6 5 5
21 16 13 15 18 20 21 22 22 22 22 20 20 20 19 17 16 16 15 16 17 18 18 19 21 23 24 25 26 26 27 27 27 27 27 27 27 26 24 23 22 22 22 21 20 19 18 19 17 14 16 22 25 25 26 28 28 27 28 28 28 27 26 25 25 23 21 19 19 18 17 16 16 15 14 14 14 13 12 10 8 6 5 3 3 3 2
15 12 11 13 14 16 18 19 20 21 21 19 17 17 17 17 17 16 15 15 15 16 17 17 18 19 20 22 22 23 24 25 26 26 27 26 25 25 24 23 23 22 21 20 19 18 19 19 18 18 25 29 29 27 27 27 27 26 26 26 26 27 26 25 24 22 20 18 18 18 17 18 17 17 16 14 13 11 9 6 4 2 1 0 1 2 3
13 12 13 13 14 15 17 18 19 19 18 15 14 14 14 15 15 14 13 13 12 13 14 15 15 16 17 18 20 21 23 24 25 26 27 27 26 26 25 24 23 21 19 18 17 17 19 19 20 26 32 32 29 27 26 26 24 24 24 24 23 24 24 23 23 21 18 17 17 17 18 18 17 16 14 12 11 8 6 3 2 1 2 2 3 5 6
15 14 13 14 15 15 14 15 15 13 10 8 8 9 10 10 10 9 9 10 10 10 11 13 14 15 16 17 18 20 21 22 22 22 21 20 20 21 21 21 20 18 16 15 15 16 19 22 28 34 35 31 28 27 26 24 23 21 20 20 20 20 20 20 20 20 17 16 16 17 16 15 14 13 11 10 8 6 4 2 2 2 3 4 4 5 6
16 15 14 15 15 12 9 9 10 9 7 6 6 7 8 9 9 8 8 10 11 12 13 14 15 14 14 13 13 13 13 13 12 11 9 7 7 9 12 13 13 13 13 12 14 18 24 31 37 38 35 31 29 26 24 22 20 18 17 17 16 16 16 16 17 17 16 15 15 15 14 13 12 10 9 7 5 3 3 3 3 3 3 4 5 6 7
15 14 13 12 11 9 8 8 9 9 8 7 7 7 8 9 9 9 10 11 12 12 11 10 8 6 5 6 7 8 8 8 8 8 8 5 6 10 10 10 9 9 11 14 20 29 36 39 40 37 33 31 28 25 22 21 18 16 15 14 13 13 13 13 14 15 14 13 14 13 12 11 9 8 6 4 3 2 2 2 2 3 4 5 6 7 8
13 11 8 7 8 10 9 8 7 8 7 7 8 8 8 8 8 8 7 7 6 6 6 6 7 8 10 11 12 12 12 11 9 9 9 9 12 15 16 15 13 14 20 28 35 40 41 40 37 34 31 29 26 23 21 19 17 15 14 12 12 12 11 11 13 14 13 12 12 11 10 8 7 5 3 2 2 1 1 2 2 3 4 6 6 7 8
11 9 6 5 5 7 7 6 7 9 10 12 13 14 14 14 13 13 14 15 15 15 16 17 17 16 15 13 13 15 16 15 13 11 11 14 17 20 23 26 28 31 35 40 41 40 38 36 34 30 27 25 23 21 19 17 16 15 14 12 11 12 12 12 12 12 12 11 10 9 8 6 5 3 2 2 1 1 2 2 3 4 5 6 6 7 7
10 10 8 5 3 4 6 8 9 10 11 13 13 13 13 14 14 15 16 17 18 19 20 21 22 22 21 21 21 23 23 22 21 21 22 23 24 26 29 32 35 37 38 38 37 36 35 32 29 26 23 22 21 19 16 14 13 13 12 11 10 11 12 12 11 11 11 10 9 8 7 5 4 3 3 3 3 3 3 3 4 4 5 6 6 7 8
8 6 3 2 3 4 6 9 11 12 12 12 12 13 13 14 15 16 16 16 18 19 19 20 20 20 21 22 23 25 26 26 26 26 24 22 22 26 30 32 33 33 32 31 31 30 29 27 25 23 21 20 18 15 12 11 11 11 10 9 8 9 11 12 11 11 10 9 8 8 6 5 4 4 5 5 5 4 4 4 4 4 5 6 7 9 10
0 3 4 6 7 8 10 14 16 16 16 17 18 19 20 21 21 21 21 21 23 24 25 24 23 22 22 23 24 25 25 26 26 25 23 20 19 23 28 29 29 29 28 27 25 23 22 22 21 20 19 17 14 11 10 11 12 10 9 7 8 9 11 11 11 11 11 9 8 7 6 5 5 6 6 6 6 5 5 5 5 5 6 6 8 9 10
6 7 9 11 13 15 18 19 19 19 21 22 23 23 25 25 25 26 27 28 28 29 30 30 30 30 31 32 33 32 31 30 28 26 23 20 18 17 20 22 23 23 23 22 21 21 20 19 18 17 16 14 11 10 11 12 11 9 7 7 9 10 11 11 11 11 11 10 9 8 7 7 8 8 8 8 7 6 6 5 5 5 6 7 8 9 11
11 14 16 17 18 19 19 19 19 20 21 22 22 23 24 25 25 26 27 28 28 28 28 29 29 31 33 34 35 36 35 35 34 31 27 24 21 17 15 15 16 16 15 15 15 15 15 15 15 15 15 13 11 11 11 11 9 7 6 8 10 12 11 11 12 12 11 10 9 9 10 10 10 9 9 8 6 5 5 4 4 5 6 7 8 9 10
17 19 19 18 18 17 17 18 18 18 19 20 21 21 22 22 23 23 24 24 24 23 24 25 26 27 29 30 31 31 31 32 32 31 30 29 27 24 21 19 17 16 14 13 12 10 9 9 10 11 12 12 11 11 9 8 8 7 6 7 10 12 11 11 11 12 12 12 12 11 11 11 10 9 8 6 5 4 3 3 4 4 5 6 7 8 9
16 16 16 16 16 16 16 16 16 17 17 18 18 19 20 20 20 21 21 21 21 21 22 23 23 24 25 25 26 27 28 28 28 27 27 28 29 28 26 24 22 20 18 17 15 13 11 9 8 8 8 8 7 6 5 6 9 10 9 9 9 10 10 9 10 11 12 13 13 12 12 11 10 8 7 5 3 2 2 3 4 5 6 6 7 8 8
11 11 12 12 12 13 14 14 15 15 16 16 17 17 18 19 19 20 20 20 20 20 21 21 22 22 23 23 23 24 25 26 26 26 26 26 26 26 26 24 22 20 18 16 15 14 12 11 9 8 7 5 3 2 2 2 4 7 8 8 8 8 8 9 10 11 12 12 12 12 11 10 8 7 5 3 1 1 2 3 5 6 7 7 7 8 8
9 8 9 9 9 10 11 11 12 13 14 14 15 16 16 17 18 18 19 19 19 19 20 20 20 21 21 21 22 22 23 24 24 24 24 24 24 25 25 24 21 18 15 13 11 10 9 8 7 6 5 4 4 3 3 3 3 3 4 6 7 7 7 8 9 10 11 11 11 11 10 9 7 6 4 2 1 2 3 5 6 7 7 8 8 9 9
7 6 7 8 7 7 8 9 9 10 12 13 13 14 15 15 16 16 16 16 17 17 18 18 19 19 20 20 20 21 21 21 22 22 22 22 23 24 24 23 22 19 16 12 9 7 5 4 3 3 2 1 2 2 2 3 3 3 4 5 5 6 6 7 8 9 9 10 10 10 9 8 7 6 5 4 4 4 5 6 7 8 8 9 9 9 9
7 7 8 8 5 4 6 7 7 8 9 11 11 12 12 12 13 13 13 13 14 15 16 16 17 17 18 18 19 19 20 20 20 20 21 21 21 22 22 23 22 21 19 15 11 7 4 2 1 1 1 1 2 3 3 4 5 5 5 5 6 7 7 7 8 8 8 9 9 9 9 8 8 7 7 6 6 6 7 8 9 9 9 9 10 10 10
10 10 10 9 6 6 7 8 8 8 9 9 9 9 9 10 10 11 11 11 12 13 14 14 15 16 16 17 17 18 18 19 19 19 20 20 20 20 21 21 21 21 20 17 14 10 6 4 3 3 3 4 4 5 6 6 7 8 8 8 8 9 9 9 9 9 10 10 10 10 10 10 10 10 9 9 9 9 10 10 10 10 10 10 10 10 10
13 13 12 12 11 10 10 10 9 8 8 8 8 7 7 7 8 8 9 9 10 11 12 12 13 14 15 15 15 16 17 17 17 18 19 20 20 20 21 20 21 21 20 17 14 11 8 6 4 4 4 5 6 7 7 8 9 9 10 11 11 12 12 13 13 13 13 13 13 13 13 13 13 13 12 12 12 12 12 12 11 11 11 11 11 11 10
13 15 15 14 13 12 12 11 10 9 8 7 6 6 5 5 5 6 6 7 8 8 9 10 11 12 12 13 13 14 14 15 15 17 18 18 19 19 20 20 20 20 19 17 14 12 10 8 6 5 5 5 6 7 8 9 10 10 11 12 13 14 14 15 15 16 16 16 16 16 15 16 15 15 14 14 14 13 13 13 12 12 11 11 11 11 11
12 14 15 15 14 13 13 13 11 9 8 7 6 5 4 3 2 3 4 5 6 6 7 9 9 10 11 11 12 12 13 13 14 15 16 16 16 17 17 18 18 18 17 16 15 13 11 10 9 8 7 7 7 7 8 9 10 11 12 13 14 14 15 16 16 17 17 17 17 17 16 16 16 15 15 15 15 14 14 13 13 12 12 12 11 11 11
11 13 14 16 16 16 15 13 12 10 9 8 7 6 4 3 1 1 2 3 4 5 6 7 8 9 9 10 11 11 12 13 14 15 15 15 15 15 15 15 15 15 15 15 14 13 12 11 10 10 10 10 10 9 10 10 11 11 12 13 14 15 16 16 17 17 17 18 18 17 17 16 16 16 15 15 15 15 14 14 13 13 13 13 12 12 11
Wind_Direction
260 261 264 266 264 261 260 260 259 255 253 253 250 249 252 256 257 259 267 269 258 252 256 252 243 242 243 240 237 239 244 251 259 268 273 275 274 273 272 272 271 271 271 272 272 273 274 273 271 270 269 271 273 273 272 271 269 267 265 264 263 259 257 258 260 262 264 265 266 267 267 266 266 264 260 256 257 258 258 258 259 260 260 260 262 264 264
266 263 263 262 259 260 259 256 257 257 255 255 254 253 254 253 254 258 263 262 255 249 256 263 256 245 241 241 242 249 259 266 270 274 277 277 275 274 272 271 271 271 271 271 271 273 274 272 271 270 271 272 273 274 275 275 275 274 272 271 271 270 268 266 265 263 262 262 262 263 265 265 264 263 262 260 259 258 258 258 259 260 259 259 261 262 264
271 267 262 259 258 260 260 257 255 255 255 254 253 254 255 253 254 257 259 260 260 259 259 258 254 250 250 250 251 257 263 267 270 274 275 274 272 271 269 267 265 265 265 266 268 271 270 267 268 270 270 271 271 272 273 274 275 275 274 273 274 274 273 271 269 268 267 265 265 264 264 264 262 261 261 260 259 258 257 257 258 258 258 258 259 262 266
271 270 262 259 261 264 264 259 253 251 250 251 253 254 254 255 258 261 262 264 267 268 261 253 253 256 257 256 258 261 262 264 269 272 271 270 269 267 264 262 261 260 259 259 261 262 260 258 261 264 266 268 270 271 271 271 271 272 272 272 272 272 271 270 269 269 270 270 270 269 267 264 262 261 261 261 260 259 259 258 258 259 260 261 261 263 265
270 271 262 260 267 270 266 255 247 249 252 253 256 257 256 258 261 261 261 263 265 262 253 249 254 258 256 252 255 260 263 266 270 269 265 264 263 261 259 257 256 255 254 253 252 252 253 255 258 263 266 269 272 274 274 273 272 271 271 270 269 268 268 267 268 269 270 270 270 269 267 266 265 264 263 263 262 262 263 263 262 263 264 265 265 265 266
268 270 262 262 266 264 260 249 248 255 254 251 253 256 256 256 255 256 257 258 259 257 254 255 257 258 256 253 255 260 265 268 267 261 257 257 256 252 250 250 250 250 250 251 252 254 257 260 264 268 270 272 273 274 274 273 272 271 270 270 270 269 269 269 270 270 269 268 268 267 267 266 266 267 266 265 264 264 264 264 265 266 267 267 268 268 268
263 265 257 258 260 251 248 256 258 257 254 252 253 256 256 254 254 259 262 262 262 262 262 262 262 262 263 262 260 260 261 261 257 252 249 247 244 242 243 244 246 248 249 251 254 258 261 264 267 270 272 273 274 273 272 269 268 267 267 267 268 269 270 270 270 270 270 269 269 268 267 267 267 267 267 267 267 266 265 264 264 265 266 267 267 268 269
255 253 243 245 258 261 260 265 267 268 271 270 265 263 264 261 259 263 267 267 267 267 267 267 265 264 263 260 256 253 251 248 242 237 236 236 236 238 241 243 245 247 249 252 256 259 263 266 269 270 271 272 272 270 268 267 266 265 265 266 267 268 268 268 267 268 269 269 270 269 269 268 268 268 268 268 268 267 267 266 266 265 265 265 265 266 266
247 252 253 255 266 278 276 264 265 271 270 263 257 258 263 264 262 264 269 271 271 272 272 268 263 258 250 243 243 243 240 236 232 230 233 237 237 239 241 243 245 248 251 255 259 262 265 267 269 270 270 271 270 269 268 267 267 268 269 269 270 270 269 268 267 267 268 268 269 269 269 269 269 268 267 267 267 267 267 267 267 267 267 266 266 267 267
246 255 265 264 264 276 275 248 250 262 257 253 257 258 258 264 266 265 264 266 269 269 265 259 256 248 232 218 220 232 232 228 230 233 236 238 240 242 244 247 250 253 256 259 261 263 265 267 269 270 270 270 270 270 271 271 272 273 274 274 275 274 273 272 271 269 268 268 268 269 269 270 270 269 268 267 266 266 266 266 267 266 267 267 268 268 268
248 252 261 263 262 272 274 256 252 257 253 253 259 258 250 246 255 261 258 256 267 262 253 252 249 242 236 225 221 236 235 228 229 234 235 239 242 245 248 250 253 256 259 261 262 263 264 264 266 268 269 269 269 270 273 276 277 278 280 281 281 279 277 276 274 272 270 269 268 268 269 269 270 270 270 269 267 266 265 265 266 266 266 266 267 267 268
249 250 256 263 266 270 268 261 257 257 254 249 250 257 243 222 227 246 251 257 279 264 250 250 246 243 244 235 226 237 241 236 234 237 238 241 244 248 251 254 256 258 260 261 261 262 263 264 265 266 267 268 268 270 274 277 279 283 287 288 288 286 283 281 277 274 272 270 269 268 268 269 270 272 272 272 270 268 266 265 265 266 266 266 265 265 266
251 251 256 263 265 264 263 263 262 261 257 250 246 250 243 225 224 232 236 245 269 263 248 248 248 246 248 240 232 236 242 242 242 243 246 249 252 254 257 259 260 261 262 262 262 262 263 265 266 267 268 268 270 272 274 276 280 285 288 289 289 288 285 282 279 276 274 272 270 269 268 269 270 272 273 272 270 268 266 264 263 264 264 263 262 260 260
255 255 257 264 265 258 257 262 263 258 253 253 252 247 243 240 238 239 240 243 251 255 250 249 249 248 250 247 243 243 244 245 246 248 251 255 257 258 260 261 263 263 263 263 263 262 263 265 269 271 272 273 274 275 277 279 283 286 286 287 287 286 283 280 278 277 275 273 271 269 268 268 269 270 271 269 266 264 262 260 259 260 260 258 255 253 254
255 253 253 262 262 251 251 255 260 257 249 255 262 254 250 251 249 247 247 247 249 254 255 253 252 253 254 254 253 253 253 254 255 256 257 259 260 262 263 264 266 268 269 269 269 269 269 271 273 276 277 277 278 279 280 281 284 284 284 284 283 281 279 277 276 275 274 273 271 268 266 265 266 267 267 264 262 260 259 256 255 254 254 252 249 247 249
252 249 252 260 259 257 259 255 258 268 260 258 267 270 266 265 264 263 264 263 264 268 269 267 265 265 265 266 267 268 267 266 266 266 266 267 268 270 271 271 272 273 275 277 278 277 277 278 278 279 280 279 279 279 280 281 281 281 280 280 278 276 275 274 273 273 272 270 268 266 263 262 263 264 263 261 260 260 257 253 251 249 248 247 245 243 246
258 261 265 267 265 273 285 276 269 273 269 267 275 282 282 278 276 277 279 279 279 281 282 281 280 279 278 279 278 277 276 275 274 274 274 273 274 275 275 276 276 276 277 279 279 279 279 280 279 279 279 279 280 280 280 281 281 280 280 278 276 275 274 272 271 270 269 267 265 263 261 261 262 262 260 259 260 259 256 251 249 246 244 242 242 241 242
276 274 271 267 265 273 286 286 280 278 275 274 277 279 280 279 278 278 279 280 281 282 283 284 284 284 285 285 283 282 280 278 276 274 274 274 274 275 275 276 276 276 276 276 277 278 278 278 278 278 278 280 281 281 282 283 283 282 280 278 276 275 273 272 271 270 268 265 262 261 261 261 260 259 258 257 255 253 251 248 246 244 240 238 237 238 238
277 275 273 275 279 283 288 289 285 279 276 276 277 276 275 274 274 273 274 274 275 276 277 278 279 280 281 282 282 283 282 281 279 277 276 276 275 274 274 274 274 274 275 275 277 278 279 279 280 279 280 280 279 280 283 285 283 281 279 278 278 277 275 273 272 271 267 263 260 259 258 257 257 256 254 251 247 244 242 241 241 239 236 233 232 231 232
272 274 278 284 287 288 289 289 286 281 278 277 276 276 275 274 274 274 274 273 273 273 274 273 274 274 274 275 277 278 278 279 280 279 279 279 278 276 276 276 275 275 275 276 278 279 280 281 280 279 278 278 278 280 282 282 281 280 280 280 280 279 277 275 272 268 263 259 255 252 251 251 250 247 242 237 231 227 226 230 233 231 228 226 225 226 229
278 280 286 291 292 290 289 287 285 283 282 281 278 277 276 276 276 277 277 276 276 276 275 274 274 274 273 274 275 276 277 278 279 279 278 278 277 278 278 277 277 277 277 278 278 278 278 279 279 279 278 277 277 279 281 280 280 280 281 280 279 278 276 272 267 261 255 250 246 243 241 238 230 223 221 219 214 210 210 214 216 215 214 215 218 221 225
286 285 289 294 294 292 291 291 288 285 282 281 281 280 279 279 280 280 279 278 277 276 277 277 276 276 276 277 277 277 278 279 279 278 277 277 277 277 276 275 275 275 275 276 275 276 277 279 280 280 278 276 278 281 281 281 281 281 280 279 279 277 271 264 255 246 239 234 231 228 224 217 208 201 198 197 196 197 199 200 201 202 203 206 210 216 224
287 288 291 291 290 290 289 289 289 287 286 286 286 287 287 285 283 282 280 279 277 276 275 275 275 275 275 275 276 277 277 277 277 276 275 276 276 275 274 274 274 274 274 273 273 274 276 279 280 279 277 277 281 283 283 283 283 282 280 278 273 265 252 235 221 213 208 206 205 204 201 196 192 190 189 183 179 180 186 190 191 192 195 202 211 220 229
291 293 294 292 289 287 288 289 288 288 290 290 289 289 288 286 283 281 279 277 276 275 275 274 274 274 274 273 274 274 274 274 274 274 274 275 276 277 277 277 276 275 274 273 273 274 275 276 276 275 276 280 283 284 285 285 282 277 272 263 245 226 213 201 192 189 189 188 187 184 180 176 178 185 187 183 179 179 181 183 185 189 196 206 216 224 232
298 300 298 293 289 287 287 288 289 290 291 290 288 287 286 285 283 282 280 278 277 276 274 272 271 273 274 273 272 272 273 274 275 275 277 277 278 279 279 278 277 276 274 273 272 271 271 271 270 271 275 281 285 284 283 278 266 251 235 211 189 181 179 175 170 167 164 162 161 162 162 164 168 174 177 178 180 180 179 179 185 191 198 207 214 219 226
301 302 299 294 291 290 291 292 293 295 295 291 288 289 290 290 289 287 285 283 279 275 272 270 269 271 272 271 271 273 275 277 277 278 279 279 279 279 277 275 274 272 270 269 268 266 266 266 265 267 273 279 277 266 238 187 158 148 143 141 139 138 135 135 137 138 137 136 138 143 148 153 155 156 158 162 168 172 175 177 182 186 191 198 205 212 220
298 298 295 291 289 292 295 297 299 301 300 295 293 295 298 298 297 295 293 290 284 277 273 272 272 271 271 272 274 276 278 278 279 279 279 278 277 275 272 270 269 266 264 263 262 261 262 261 260 264 267 254 213 160 138 129 123 120 120 120 121 122 123 123 122 123 125 128 131 136 141 144 147 151 154 157 161 166 169 171 173 178 186 195 203 213 224
296 295 290 286 287 290 293 295 297 301 301 299 297 299 303 305 304 300 296 293 286 280 276 274 274 275 276 277 278 278 279 280 279 278 277 276 274 271 270 269 266 262 260 258 257 257 257 255 256 258 242 203 168 142 130 126 124 122 122 122 121 123 124 124 125 126 129 132 134 137 140 142 145 149 152 155 158 159 160 163 170 179 186 194 206 222 237
300 298 288 282 285 290 294 298 301 304 305 304 301 302 305 306 303 299 296 294 291 287 283 279 278 279 279 280 279 278 278 278 277 276 275 273 271 271 270 268 263 259 257 254 253 252 249 245 245 236 202 175 156 139 131 128 126 126 127 127 128 129 129 129 127 127 129 131 131 133 136 137 139 142 145 148 151 152 155 161 168 174 183 197 224 245 269
305 299 295 293 297 301 304 307 310 311 311 310 306 304 303 301 300 299 298 296 292 289 288 286 284 283 282 282 280 278 277 275 275 274 274 274 273 273 272 267 262 259 256 252 250 246 239 235 229 205 179 163 151 142 137 132 129 128 128 127 127 127 126 125 124 124 126 126 126 127 130 133 136 138 139 141 144 146 149 154 155 154 162 233 313 328 350
317 314 313 313 314 316 317 317 315 314 315 315 311 307 304 301 301 299 295 290 288 288 291 293 291 288 286 283 280 278 278 277 278 278 277 276 275 274 271 267 263 259 254 251 245 236 229 222 204 181 167 157 149 143 138 131 128 127 125 123 123 123 122 123 122 122 121 121 121 124 127 129 131 133 132 133 135 137 137 132 104 53 28 15 3 358 359
326 324 323 323 324 326 328 326 325 329 337 339 327 316 311 309 310 310 303 295 291 291 294 296 295 292 290 287 284 283 282 281 280 279 278 275 271 265 261 258 255 250 243 236 225 213 205 192 175 163 156 150 144 140 134 129 128 128 124 120 119 119 122 124 124 123 123 122 121 122 123 125 127 127 127 127 128 128 121 92 58 33 16 10 8 5 2
325 326 330 332 333 338 345 344 345 354 358 335 306 295 298 304 310 310 300 295 296 298 301 302 302 299 297 296 295 293 292 293 294 294 293 284 254 230 222 218 215 213 211 205 192 179 172 165 159 153 149 144 141 137 132 128 128 129 127 123 117 116 120 124 125 125 126 125 124 124 125 126 125 124 123 123 119 109 85 62 43 22 10 11 12 10 9
325 331 338 342 348 2 8 352 338 333 326 315 307 307 314 320 322 314 301 297 300 306 309 311 314 320 338 357 1 358 352 349 352 358 9 42 117 142 149 157 173 187 186 171 159 154 153 152 149 146 143 143 141 136 132 130 129 127 127 126 120 117 120 125 129 132 133 132 130 129 129 128 125 122 117 108 89 68 54 43 28 19 19 18 17 17 17
337 344 354 4 10 10 2 347 337 343 357 13 19 18 16 14 10 3 359 0 5 11 23 38 47 51 52 46 37 30 28 28 28 26 34 68 105 118 122 128 140 149 146 142 141 143 144 144 143 144 146 146 143 138 137 135 130 123 120 120 121 124 130 136 141 141 139 137 136 134 134 134 131 123 108 80 49 39 45 37 34 32 28 23 23 25 23
345 356 0 358 2 7 8 11 20 31 44 53 51 49 52 55 55 55 58 59 59 60 64 68 71 71 70 67 63 61 63 66 70 71 77 93 109 120 127 131 133 132 133 134 136 139 142 143 145 148 149 147 143 143 144 140 132 126 124 125 128 135 142 149 152 148 144 142 143 144 147 147 139 120 96 72 64 81 81 62 51 43 35 31 32 31 25
335 338 334 326 343 28 31 33 40 48 58 61 57 55 59 63 65 68 69 69 71 73 77 82 86 88 88 86 82 81 83 89 95 100 102 104 112 122 131 133 132 131 133 136 139 142 144 146 148 148 147 146 148 151 150 141 132 130 132 134 137 142 148 154 158 156 151 151 154 157 158 153 140 118 108 102 99 95 86 74 64 53 44 39 35 30 25
318 318 326 35 69 58 47 53 61 64 66 68 67 68 71 73 74 75 74 73 74 74 75 79 83 87 89 88 84 82 81 83 88 94 98 104 118 131 133 132 132 135 138 139 142 145 147 148 148 147 149 153 157 157 147 137 136 141 146 145 142 144 151 160 166 166 163 163 165 164 162 153 138 127 119 115 112 108 100 91 81 67 55 46 36 29 25
133 121 104 82 75 78 82 82 82 82 83 84 83 80 78 77 76 77 77 76 75 73 72 72 73 75 78 80 79 78 76 73 74 78 82 90 113 134 139 139 140 142 142 142 144 147 148 150 151 153 157 162 163 157 149 148 153 159 161 155 150 153 160 169 176 177 175 174 172 169 165 157 148 142 136 131 128 122 111 102 90 75 62 49 36 28 23
124 110 102 95 94 97 96 92 90 90 88 86 83 81 80 77 76 76 78 77 77 76 76 75 73 71 70 69 68 68 67 65 64 65 68 73 88 113 130 137 140 142 145 150 154 156 156 159 161 164 168 170 166 162 165 171 176 181 178 167 163 166 173 180 185 185 183 181 178 176 171 163 155 150 145 140 134 125 112 99 88 75 63 48 36 27 20
112 109 109 104 99 95 92 90 90 89 86 84 83 82 80 78 76 76 76 76 76 76 75 75 74 73 71 69 67 66 65 64 62 60 59 61 67 78 92 103 109 115 124 137 148 157 164 171 175 179 182 181 174 169 174 183 189 194 190 181 177 178 181 187 191 190 188 187 184 178 170 163 159 156 151 145 138 126 112 95 78 65 52 40 31 24 16
116 114 110 104 99 97 95 93 91 88 86 86 85 83 81 81 79 77 76 75 75 74 73 73 73 73 73 72 71 70 68 67 66 63 61 59 59 60 61 65 69 72 79 87 96 111 131 151 165 173 177 176 170 167 174 188 196 198 199 196 191 188 188 192 194 191 186 183 179 174 170 166 165 162 157 150 140 125 102 74 55 43 33 26 20 15 10
119 119 114 109 106 105 103 100 98 94 91 89 87 86 85 84 82 79 78 77 75 74 73 72 72 73 73 73 73 73 71 70 69 67 64 61 59 57 56 55 54 53 54 56 57 62 73 86 104 125 141 153 161 168 182 201 205 206 207 207 199 193 192 195 196 193 187 181 176 174 174 173 171 169 164 154 142 115 65 38 26 19 12 7 4 2 2
125 125 124 121 117 113 110 108 106 103 99 96 93 91 89 87 85 82 81 78 76 75 74 73 72 72 72 72 72 72 72 70 68 66 64 62 59 56 54 53 53 52 51 51 50 50 52 55 60 72 85 94 97 94 99 144 186 199 201 196 187 185 189 193 193 191 189 185 182 181 182 182 181 179 175 167 155 37 8 6 2 356 353 350 348 347 350
138 131 135 139 134 123 116 112 110 109 107 103 99 96 92 89 87 84 81 79 77 75 74 73 72 71 70 70 70 69 69 68 67 64 63 61 57 53 51 50 49 48 47 48 49 50 52 54 57 63 73 85 93 99 105 110 120 148 169 171 169 172 179 184 187 189 190 190 191 192 193 193 194 197 202 214 256 314 335 340 339 336 335 335 335 335 338
157 152 160 163 155 136 124 118 116 116 112 106 102 100 96 92 89 86 83 81 80 78 75 73 71 68 66 65 63 62 62 62 61 59 57 54 51 47 44 42 40 39 37 37 38 40 44 52 58 61 73 108 135 144 150 153 153 159 168 174 180 185 188 191 195 199 202 204 205 206 208 210 215 223 234 251 276 300 313 316 318 319 321 322 323 325 328
187 179 177 178 178 162 147 141 135 127 118 109 103 100 97 92 88 84 80 77 77 75 73 71 68 65 61 58 55 53 52 51 50 49 47 44 42 39 37 33 29 26 23 22 21 20 18 13 359 316 250 219 215 216 215 213 211 208 203 197 197 200 204 206 209 213 216 217 219 221 225 231 238 246 255 267 279 289 295 298 303 308 311 312 314 317 320
209 200 191 193 208 207 182 165 155 142 128 116 105 97 91 87 83 78 74 70 67 65 64 62 61 58 55 52 49 46 43 40 39 38 36 32 30 28 26 23 20 16 12 10 8 7 2 350 319 285 265 252 244 238 234 231 231 232 233 231 227 224 222 221 221 223 228 232 236 240 245 251 256 261 267 273 278 282 285 289 295 300 303 306 308 311 314
217 215 212 215 220 211 188 173 167 156 140 126 113 102 92 83 75 71 67 62 57 54 52 50 49 47 45 42 41 39 36 34 32 30 27 23 20 17 14 11 10 7 4 1 359 357 352 343 326 301 278 267 261 255 249 244 240 239 239 241 242 241 240 239 238 239 242 244 248 252 256 259 262 265 268 272 274 276 279 283 289 293 296 299 303 305 307
221 217 214 212 209 199 186 179 177 171 158 143 130 120 108 90 74 66 59 53 49 47 44 41 39 37 35 33 32 32 31 30 29 26 21 16 11 8 5 3 1 359 356 354 353 351 347 340 331 317 299 285 276 271 266 262 257 252 247 245 244 245 246 247 247 248 249 252 254 256 259 262 264 266 269 271 272 273 275 278 282 286 289 292 296 299 300
226 213 204 198 193 190 189 188 185 182 177 171 162 154 144 125 88 60 46 40 36 34 32 31 29 27 25 24 24 24 24 24 24 22 17 12 7 4 0 357 355 354 351 349 346 343 340 336 330 320 311 302 292 284 278 274 271 267 263 258 254 250 249 249 249 250 251 253 255 256 259 263 265 267 269 270 270 271 273 275 277 280 283 286 288 291 293
229 214 202 194 190 192 195 194 193 193 195 194 191 187 181 173 160 29 18 22 21 20 22 22 18 14 14 16 18 18 19 19 17 13 9 6 3 0 357 355 354 352 350 346 342 337 333 329 325 319 313 307 300 292 286 280 275 273 271 268 265 261 257 255 253 253 253 253 254 255 256 258 260 263 266 268 269 271 273 274 275 276 278 280 281 284 286
Height
3072 3072 3072 3071 3071 3071 3072 3072 3071 3072 3072 3071 3071 3070 3071 3072 3070 3066 3068 3069 3069 3070 3071 3072 3073 3072 3072 3072 3072 3072 3072 3072 3073 3073 3074 3074 3074 3074 3075 3075 3075 3076 3076 3076 3076 3077 3077 3077 3077 3077 3077 3078 3078 3078 3079 3079 3079 3080 3080 3081 3081 3082 3082 3083 3083 3083 3084 3085 3085 3086 3086 3087 3087 3088 3088 3089 3089 3089 3089 3090 3090 3090 3091 3091 3092 3092 3091
3069 3070 3070 3069 3069 3069 3069 3068 3068 3068 3069 3069 3068 3068 3068 3069 3067 3066 3067 3066 3065 3068 3070 3071 3071 3070 3070 3070 3070 3070 3070 3070 3070 3071 3071 3071 3071 3071 3071 3071 3072 3072 3073 3073 3073 3074 3074 3074 3074 3074 3075 3075 3075 3075 3076 3076 3076 3077 3077 3077 3078 3078 3078 3079 3079 3080 3081 3081 3082 3082 3083 3083 3083 3084 3084 3084 3084 3085 3085 3085 3085 3085 3086 3087 3088 3088 3087
3066 3066 3067 3067 3066 3066 3065 3064 3065 3065 3065 3065 3065 3064 3065 3065 3063 3063 3064 3061 3060 3064 3067 3068 3067 3067 3067 3068 3067 3067 3067 3067 3068 3068 3067 3067 3067 3067 3067 3068 3068 3068 3069 3069 3069 3070 3071 3071 3071 3071 3072 3072 3072 3072 3073 3073 3073 3073 3073 3073 3074 3074 3074 3075 3075 3075 3076 3077 3077 3078 3078 3079 3079 3079 3079 3079 3080 3080 3080 3080 3080 3080 3081 3082 3083 3083 3082
3063 3063 3064 3063 3064 3063 3060 3060 3060 3061 3061 3060 3060 3061 3061 3060 3059 3060 3060 3058 3057 3060 3063 3063 3063 3063 3064 3064 3063 3063 3063 3064 3065 3065 3064 3064 3064 3064 3064 3064 3064 3065 3065 3066 3066 3066 3068 3068 3068 3068 3068 3069 3069 3069 3069 3070 3070 3070 3070 3070 3070 3070 3070 3070 3071 3071 3071 3071 3072 3072 3073 3073 3074 3074 3074 3075 3075 3076 3076 3076 3076 3075 3076 3077 3078 3078 3078
3060 3061 3062 3061 3061 3059 3055 3053 3054 3056 3057 3056 3056 3057 3057 3057 3057 3057 3056 3055 3055 3056 3057 3058 3059 3060 3059 3059 3059 3059 3059 3061 3062 3061 3060 3060 3060 3060 3060 3061 3061 3061 3062 3062 3063 3064 3064 3065 3065 3065 3065 3065 3066 3066 3066 3066 3066 3066 3066 3066 3066 3066 3067 3067 3067 3067 3067 3067 3067 3067 3068 3068 3068 3069 3069 3070 3070 3071 3071 3071 3071 3071 3071 3072 3073 3074 3074
3059 3059 3060 3060 3058 3054 3050 3049 3050 3052 3053 3053 3053 3053 3053 3053 3053 3052 3052 3052 3052 3052 3053 3054 3055 3055 3054 3055 3056 3056 3056 3058 3058 3057 3056 3056 3056 3056 3057 3057 3057 3058 3058 3059 3060 3060 3061 3061 3061 3061 3062 3062 3062 3062 3062 3062 3062 3062 3062 3062 3062 3062 3062 3062 3062 3062 3062 3062 3062 3062 3063 3063 3063 3064 3064 3064 3065 3066 3066 3066 3066 3067 3067 3067 3068 3069 3069
3057 3058 3059 3058 3053 3049 3047 3047 3048 3048 3049 3049 3049 3049 3048 3048 3048 3047 3048 3048 3048 3048 3048 3048 3049 3050 3050 3052 3053 3053 3053 3054 3054 3053 3052 3052 3052 3052 3053 3053 3054 3055 3055 3056 3056 3057 3057 3057 3057 3057 3058 3058 3058 3059 3059 3059 3059 3059 3059 3058 3058 3058 3058 3058 3058 3058 3058 3057 3057 3058 3058 3059 3059 3059 3059 3059 3060 3060 3061 3061 3061 3061 3062 3062 3062 3063 3064
3055 3055 3056 3053 3048 3045 3046 3046 3046 3046 3047 3047 3047 3046 3045 3044 3045 3045 3044 3044 3043 3043 3043 3044 3045 3046 3047 3048 3048 3049 3049 3049 3049 3048 3048 3048 3048 3049 3050 3050 3051 3052 3052 3052 3053 3053 3053 3053 3054 3054 3054 3054 3054 3054 3055 3055 3055 3055 3055 3055 3055 3055 3055 3054 3054 3054 3053 3053 3053 3053 3053 3054 3054 3054 3054 3055 3055 3055 3055 3055 3055 3056 3056 3057 3057 3058 3058
3053 3052 3050 3048 3045 3044 3044 3044 3043 3043 3044 3044 3044 3044 3043 3042 3042 3042 3042 3042 3041 3041 3041 3041 3042 3043 3045 3045 3045 3044 3044 3045 3044 3044 3044 3044 3045 3046 3047 3047 3048 3048 3049 3049 3049 3049 3049 3050 3050 3050 3050 3050 3050 3050 3050 3051 3051 3051 3051 3051 3051 3051 3051 3050 3050 3050 3050 3049 3049 3048 3048 3048 3049 3049 3049 3050 3050 3050 3050 3050 3050 3050 3051 3051 3052 3052 3052
3051 3050 3047 3044 3043 3042 3041 3041 3041 3041 3041 3042 3042 3042 3041 3040 3039 3040 3040 3040 3040 3040 3039 3039 3040 3041 3043 3043 3042 3040 3040 3041 3041 3041 3041 3042 3043 3043 3044 3044 3045 3045 3045 3045 3046 3046 3046 3046 3046 3046 3046 3045 3045 3045 3045 3046 3046 3046 3047 3047 3047 3047 3046 3046 3046 3045 3045 3045 3044 3044 3044 3043 3043 3044 3044 3044 3044 3044 3044 3045 3045 3045 3045 3045 3046 3046 3046
3049 3048 3046 3042 3041 3040 3039 3039 3039 3039 3040 3040 3040 3040 3039 3037 3037 3037 3038 3038 3038 3037 3037 3037 3039 3039 3040 3042 3041 3037 3036 3038 3038 3038 3039 3039 3040 3040 3041 3041 3041 3041 3042 3042 3042 3042 3042 3042 3042 3042 3041 3041 3041 3040 3041 3041 3041 3042 3042 3043 3043 3042 3042 3041 3041 3040 3040 3039 3039 3039 3038 3038 3038 3038 3038 3038 3038 3038 3039 3039 3039 3039 3040 3040 3040 3041 3041
3046 3046 3044 3041 3040 3039 3037 3037 3037 3038 3038 3039 3039 3038 3036 3034 3034 3035 3035 3036 3036 3035 3034 3035 3037 3037 3038 3040 3038 3034 3034 3036 3036 3036 3036 3036 3037 3037 3037 3037 3037 3037 3038 3038 3038 3038 3038 3038 3038 3038 3037 3037 3036 3036 3036 3036 3036 3037 3037 3037 3037 3036 3036 3036 3035 3035 3034 3034 3034 3033 3033 3033 3033 3033 3033 3033 3033 3033 3033 3033 3033 3034 3034 3035 3035 3035 3036
3043 3043 3041 3039 3038 3037 3035 3034 3035 3036 3037 3038 3037 3035 3033 3032 3032 3032 3032 3033 3033 3033 3032 3033 3034 3034 3034 3033 3032 3032 3032 3033 3033 3033 3033 3033 3034 3034 3034 3033 3034 3034 3034 3034 3034 3034 3033 3033 3034 3033 3033 3032 3031 3031 3031 3031 3032 3032 3032 3032 3031 3031 3030 3029 3029 3028 3028 3028 3027 3027 3027 3027 3027 3027 3028 3027 3027 3027 3028 3028 3028 3028 3029 3030 3030 3031 3031
3041 3040 3039 3037 3036 3034 3032 3032 3033 3033 3035 3035 3032 3031 3031 3030 3030 3030 3030 3030 3030 3030 3029 3029 3030 3030 3029 3029 3029 3030 3030 3030 3030 3030 3030 3030 3030 3030 3030 3030 3030 3030 3029 3029 3029 3029 3029 3029 3029 3029 3028 3027 3026 3026 3026 3026 3027 3027 3027 3026 3025 3025 3024 3023 3022 3022 3021 3021 3021 3021 3021 3021 3021 3021 3022 3022 3022 3022 3022 3022 3023 3023 3024 3025 3025 3025 3026
3039 3038 3037 3036 3034 3032 3031 3032 3032 3032 3032 3031 3029 3029 3029 3029 3028 3027 3027 3027 3027 3027 3027 3027 3027 3026 3026 3026 3026 3026 3026 3027 3027 3026 3026 3026 3026 3026 3026 3026 3026 3025 3024 3024 3024 3024 3024 3024 3024 3024 3023 3021 3021 3020 3020 3021 3022 3021 3020 3020 3019 3018 3017 3016 3016 3015 3015 3014 3014 3013 3014 3014 3014 3015 3016 3016 3016 3016 3017 3017 3018 3018 3019 3020 3020 3020 3020
3036 3035 3035 3034 3032 3030 3030 3030 3030 3029 3029 3028 3027 3027 3027 3026 3025 3025 3024 3024 3024 3024 3023 3023 3023 3023 3023 3023 3023 3022 3022 3023 3022 3022 3022 3022 3021 3021 3021 3021 3020 3020 3019 3019 3018 3018 3018 3018 3018 3018 3017 3015 3014 3013 3013 3015 3015 3014 3014 3013 3012 3010 3010 3009 3009 3009 3008 3007 3007 3007 3007 3007 3008 3009 3010 3010 3010 3011 3012 3012 3013 3013 3014 3015 3015 3016 3016
3034 3033 3032 3031 3030 3030 3030 3028 3027 3027 3026 3025 3025 3024 3024 3023 3023 3022 3021 3021 3020 3020 3019 3019 3018 3018 3019 3019 3019 3018 3018 3018 3018 3017 3017 3017 3017 3017 3016 3015 3015 3014 3014 3013 3012 3011 3012 3012 3012 3011 3010 3009 3007 3006 3006 3007 3007 3006 3006 3005 3003 3003 3003 3002 3002 3002 3001 3000 3000 3000 3000 3001 3002 3003 3003 3004 3005 3005 3006 3008 3008 3009 3010 3011 3012 3013 3014
3032 3030 3029 3028 3028 3028 3028 3026 3025 3025 3024 3023 3022 3021 3020 3020 3019 3019 3018 3017 3017 3016 3015 3015 3014 3014 3014 3013 3013 3014 3013 3013 3013 3012 3012 3012 3012 3012 3011 3011 3010 3009 3008 3007 3006 3005 3006 3006 3006 3005 3004 3003 3001 2999 2999 3000 2999 2998 2997 2996 2995 2995 2995 2995 2995 2994 2994 2994 2994 2994 2995 2995 2996 2997 2998 2999 3000 3000 3001 3003 3004 3005 3007 3008 3009 3011 3012
3029 3028 3027 3026 3026 3025 3024 3023 3023 3022 3021 3020 3019 3018 3017 3016 3015 3015 3014 3014 3013 3012 3012 3011 3011 3010 3010 3009 3008 3008 3008 3007 3007 3007 3007 3007 3007 3007 3006 3006 3005 3004 3003 3002 3001 3001 3001 3000 3000 2999 2998 2997 2996 2994 2994 2994 2992 2991 2989 2988 2987 2988 2988 2988 2987 2987 2987 2987 2987 2988 2989 2990 2991 2992 2993 2994 2995 2996 2997 2998 3000 3002 3003 3005 3007 3008 3010
3027 3025 3025 3024 3023 3022 3022 3021 3020 3019 3018 3017 3016 3014 3013 3012 3011 3011 3010 3010 3009 3008 3008 3008 3007 3006 3006 3005 3004 3004 3004 3003 3002 3002 3002 3002 3001 3001 3001 3000 3000 2999 2998 2997 2997 2996 2996 2996 2995 2994 2993 2992 2990 2990 2989 2987 2985 2984 2982 2982 2981 2981 2980 2980 2979 2979 2980 2980 2981 2983 2984 2985 2987 2988 2989 2990 2991 2993 2994 2996 2997 2999 3001 3003 3005 3006 3008
3024 3023 3023 3022 3020 3019 3018 3018 3017 3015 3014 3012 3011 3010 3009 3008 3007 3007 3006 3005 3005 3004 3003 3003 3002 3001 3001 3001 3000 2999 2999 2998 2998 2998 2997 2997 2996 2996 2996 2995 2995 2994 2993 2993 2992 2991 2991 2991 2990 2989 2988 2987 2986 2985 2983 2981 2979 2978 2976 2975 2974 2973 2972 2972 2971 2972 2973 2974 2976 2978 2979 2981 2983 2984 2985 2987 2989 2991 2992 2994 2996 2998 2999 3001 3003 3004 3005
3022 3021 3020 3019 3016 3014 3014 3014 3012 3011 3010 3008 3007 3005 3005 3004 3003 3002 3001 3000 3000 2999 2999 2998 2998 2997 2996 2996 2996 2995 2994 2994 2993 2993 2992 2991 2991 2991 2990 2990 2989 2988 2988 2987 2987 2986 2986 2986 2986 2985 2983 2982 2981 2980 2977 2975 2974 2972 2971 2969 2968 2966 2965 2964 2965 2966 2968 2970 2972 2974 2975 2977 2979 2981 2983 2985 2987 2989 2990 2992 2994 2996 2998 2999 3001 3003 3004
3019 3017 3017 3016 3013 3010 3009 3009 3008 3007 3006 3004 3002 3001 3001 3000 2998 2997 2995 2994 2993 2993 2993 2993 2993 2992 2991 2991 2991 2990 2989 2989 2988 2987 2987 2986 2986 2985 2985 2984 2984 2984 2983 2982 2982 2982 2982 2982 2981 2980 2979 2978 2977 2975 2972 2970 2969 2967 2965 2963 2962 2961 2960 2960 2961 2962 2964 2967 2969 2971 2973 2974 2977 2979 2981 2983 2985 2988 2990 2992 2993 2995 2997 2999 3000 3002 3002
3015 3014 3013 3012 3010 3007 3005 3005 3003 3002 3001 2999 2998 2997 2996 2994 2993 2992 2990 2988 2987 2987 2987 2988 2988 2987 2986 2986 2986 2985 2984 2984 2983 2982 2981 2981 2980 2980 2980 2979 2979 2978 2978 2978 2978 2978 2978 2978 2977 2976 2975 2974 2973 2970 2967 2965 2963 2961 2960 2959 2959 2958 2958 2959 2960 2961 2963 2965 2967 2969 2972 2974 2977 2980 2982 2983 2985 2987 2989 2991 2993 2995 2997 2998 2999 3000 3001
3012 3011 3009 3007 3005 3003 3001 3000 2998 2997 2997 2995 2993 2992 2991 2989 2987 2985 2983 2982 2981 2981 2981 2982 2982 2982 2981 2981 2980 2979 2978 2978 2978 2977 2976 2976 2975 2975 2974 2974 2974 2973 2973 2973 2973 2973 2973 2974 2973 2973 2972 2971 2969 2967 2964 2962 2960 2958 2958 2957 2958 2958 2959 2960 2961 2962 2963 2965 2968 2970 2973 2975 2978 2980 2982 2984 2986 2987 2989 2991 2993 2995 2996 2997 2998 2999 3000
3009 3007 3005 3002 3000 2998 2997 2995 2993 2993 2993 2991 2988 2987 2986 2984 2982 2979 2977 2976 2976 2976 2976 2976 2977 2977 2976 2976 2975 2974 2973 2973 2972 2972 2971 2970 2970 2969 2969 2969 2969 2968 2968 2969 2969 2969 2969 2970 2970 2970 2970 2969 2967 2965 2963 2962 2960 2959 2958 2958 2959 2960 2961 2963 2964 2965 2967 2968 2971 2973 2975 2977 2979 2981 2983 2985 2987 2988 2990 2991 2993 2994 2996 2997 2998 2998 2999
3005 3003 3001 2998 2996 2995 2994 2992 2990 2989 2988 2987 2985 2983 2982 2980 2977 2975 2973 2972 2972 2972 2972 2972 2972 2972 2972 2971 2970 2969 2968 2968 2967 2966 2965 2965 2964 2964 2964 2964 2963 2963 2963 2964 2964 2965 2965 2966 2966 2967 2968 2968 2967 2965 2964 2963 2962 2961 2961 2962 2962 2963 2964 2965 2967 2969 2970 2972 2974 2976 2977 2979 2981 2982 2984 2985 2987 2989 2990 2992 2993 2995 2996 2997 2997 2998 2998
3000 2999 2997 2995 2992 2991 2990 2989 2987 2986 2984 2983 2981 2979 2978 2976 2974 2972 2971 2970 2969 2969 2969 2969 2968 2967 2967 2966 2965 2964 2963 2962 2961 2961 2960 2959 2959 2958 2958 2958 2958 2958 2959 2960 2960 2961 2962 2962 2963 2965 2966 2967 2967 2966 2965 2964 2964 2964 2964 2965 2965 2966 2967 2968 2969 2971 2973 2974 2976 2977 2979 2980 2982 2983 2985 2986 2988 2989 2991 2992 2993 2994 2995 2996 2996 2996 2996
2996 2995 2994 2992 2990 2989 2987 2986 2984 2983 2981 2980 2978 2976 2974 2973 2972 2970 2969 2968 2967 2966 2966 2966 2965 2963 2962 2961 2960 2959 2958 2957 2956 2955 2954 2954 2953 2953 2953 2953 2953 2953 2954 2955 2956 2958 2959 2959 2961 2963 2964 2965 2966 2966 2966 2966 2967 2967 2967 2967 2968 2969 2970 2971 2971 2973 2975 2976 2978 2979 2981 2982 2983 2985 2986 2987 2989 2990 2991 2992 2993 2994 2994 2994 2994 2994 2994
2993 2992 2991 2990 2988 2987 2985 2983 2981 2980 2978 2976 2975 2974 2972 2971 2969 2968 2967 2966 2965 2964 2963 2962 2961 2959 2958 2957 2956 2954 2953 2952 2951 2950 2949 2948 2948 2948 2948 2948 2948 2949 2950 2951 2952 2954 2955 2956 2958 2960 2962 2964 2965 2967 2967 2968 2969 2969 2970 2970 2971 2971 2972 2972 2973 2975 2976 2978 2979 2981 2982 2983 2985 2986 2987 2989 2990 2991 2991 2992 2993 2993 2993 2993 2993 2992 2992
2991 2990 2989 2988 2986 2985 2983 2981 2979 2977 2975 2974 2973 2972 2970 2969 2967 2966 2965 2964 2962 2961 2960 2958 2957 2956 2954 2953 2952 2950 2948 2947 2946 2945 2944 2943 2943 2943 2943 2943 2943 2944 2945 2947 2948 2949 2951 2953 2956 2958 2961 2963 2966 2967 2969 2970 2970 2971 2972 2972 2973 2973 2973 2974 2975 2976 2978 2979 2981 2982 2983 2984 2986 2987 2988 2989 2990 2991 2991 2992 2992 2992 2992 2992 2992 2991 2991
2990 2989 2988 2986 2984 2983 2981 2979 2977 2976 2974 2973 2972 2970 2969 2967 2966 2964 2963 2961 2960 2959 2957 2956 2954 2953 2951 2950 2948 2946 2945 2943 2942 2940 2940 2939 2938 2938 2938 2938 2939 2940 2941 2943 2944 2946 2948 2951 2954 2957 2961 2964 2966 2968 2970 2971 2971 2972 2973 2973 2974 2975 2975 2976 2976 2977 2979 2980 2982 2983 2984 2985 2986 2987 2988 2989 2990 2991 2991 2991 2991 2992 2992 2992 2991 2991 2991
2989 2988 2986 2985 2983 2981 2980 2979 2977 2975 2974 2972 2971 2969 2968 2966 2964 2963 2962 2960 2958 2957 2955 2954 2952 2951 2949 2947 2946 2944 2942 2940 2938 2937 2935 2934 2934 2934 2934 2935 2936 2937 2939 2941 2942 2944 2947 2950 2954 2958 2962 2965 2967 2969 2970 2971 2972 2973 2973 2974 2975 2976 2977 2977 2978 2978 2980 2981 2982 2984 2985 2986 2987 2988 2988 2989 2990 2990 2991 2991 2991 2991 2991 2991 2991 2990 2989
2988 2986 2985 2984 2982 2980 2979 2978 2976 2975 2973 2971 2970 2968 2966 2965 2963 2962 2960 2959 2957 2955 2954 2952 2951 2949 2948 2946 2944 2942 2940 2938 2936 2934 2933 2932 2932 2932 2933 2934 2935 2936 2937 2939 2941 2944 2948 2952 2956 2960 2963 2965 2968 2970 2971 2972 2973 2973 2974 2975 2976 2977 2978 2979 2979 2980 2981 2982 2983 2984 2985 2986 2987 2988 2989 2989 2990 2990 2990 2991 2991 2991 2990 2990 2990 2989 2988
2987 2986 2985 2983 2982 2980 2979 2978 2976 2975 2973 2971 2970 2968 2966 2964 2963 2961 2960 2958 2956 2955 2953 2951 2950 2949 2947 2946 2945 2943 2940 2938 2936 2935 2934 2933 2933 2933 2935 2936 2936 2937 2938 2940 2944 2947 2951 2955 2959 2962 2965 2967 2969 2971 2972 2973 2974 2975 2975 2976 2977 2978 2979 2980 2981 2981 2982 2983 2984 2985 2986 2987 2988 2988 2989 2989 2990 2990 2990 2990 2990 2990 2990 2989 2989 2989 2988
2986 2985 2984 2983 2982 2981 2980 2978 2977 2975 2974 2972 2970 2969 2967 2966 2965 2963 2961 2959 2958 2956 2954 2952 2951 2950 2949 2949 2948 2945 2942 2940 2939 2938 2937 2937 2937 2937 2939 2940 2941 2942 2943 2946 2949 2953 2956 2959 2962 2964 2967 2969 2971 2972 2973 2974 2975 2976 2976 2977 2978 2979 2980 2981 2981 2982 2983 2984 2985 2986 2986 2987 2988 2988 2989 2989 2990 2990 2990 2990 2989 2989 2989 2989 2989 2989 2988
2986 2985 2984 2983 2982 2981 2980 2979 2977 2976 2975 2973 2972 2971 2970 2968 2967 2965 2964 2963 2962 2960 2958 2957 2955 2954 2953 2953 2952 2950 2947 2946 2945 2944 2943 2943 2943 2943 2944 2945 2947 2948 2950 2952 2955 2957 2960 2962 2964 2967 2969 2970 2972 2973 2974 2975 2976 2977 2978 2979 2979 2980 2980 2981 2982 2983 2983 2984 2985 2986 2987 2987 2988 2988 2989 2989 2989 2989 2989 2989 2989 2989 2989 2989 2989 2988 2988
2986 2984 2984 2983 2983 2982 2981 2979 2978 2977 2976 2975 2974 2973 2972 2971 2969 2968 2967 2966 2965 2964 2962 2961 2960 2958 2957 2956 2955 2954 2952 2951 2950 2949 2949 2949 2949 2949 2950 2951 2953 2955 2956 2958 2959 2961 2964 2965 2967 2969 2970 2972 2973 2974 2975 2976 2976 2977 2978 2979 2980 2980 2980 2982 2983 2983 2984 2985 2986 2986 2987 2988 2988 2988 2989 2989 2989 2989 2989 2989 2989 2988 2988 2988 2988 2988 2987
2986 2985 2985 2984 2983 2983 2982 2981 2980 2979 2978 2977 2976 2976 2975 2973 2972 2971 2969 2968 2967 2966 2965 2964 2963 2962 2961 2959 2958 2956 2955 2955 2955 2954 2954 2954 2954 2955 2955 2956 2957 2959 2960 2962 2963 2965 2966 2968 2969 2971 2972 2973 2974 2975 2976 2976 2977 2978 2979 2979 2980 2980 2981 2982 2983 2984 2985 2985 2986 2987 2987 2987 2988 2988 2988 2989 2989 2989 2989 2989 2989 2988 2988 2988 2988 2987 2986
2987 2986 2986 2986 2985 2985 2984 2983 2982 2982 2981 2980 2979 2978 2977 2976 2975 2974 2972 2971 2970 2970 2969 2968 2967 2966 2964 2963 2961 2960 2959 2959 2958 2958 2958 2959 2959 2960 2960 2960 2961 2962 2963 2965 2966 2967 2969 2970 2971 2972 2973 2974 2975 2976 2977 2977 2978 2979 2980 2980 2980 2981 2982 2983 2984 2984 2985 2985 2986 2986 2987 2987 2988 2988 2988 2989 2989 2989 2989 2989 2988 2988 2988 2987 2987 2986 2985
2988 2988 2988 2987 2987 2987 2986 2985 2985 2984 2983 2982 2981 2980 2979 2978 2978 2977 2976 2975 2974 2974 2973 2972 2971 2969 2968 2967 2965 2964 2964 2964 2963 2963 2964 2964 2964 2964 2964 2964 2965 2966 2967 2967 2968 2969 2970 2971 2972 2973 2974 2975 2976 2976 2977 2978 2979 2980 2980 2980 2981 2981 2982 2983 2983 2984 2984 2985 2985 2986 2986 2987 2987 2988 2988 2988 2989 2989 2988 2988 2988 2987 2987 2986 2986 2985 2984
2989 2989 2989 2989 2989 2988 2988 2988 2987 2986 2986 2985 2984 2983 2982 2981 2981 2980 2979 2978 2977 2977 2976 2975 2974 2972 2971 2971 2970 2970 2969 2969 2968 2969 2969 2968 2968 2968 2968 2968 2968 2969 2969 2970 2970 2971 2972 2972 2973 2974 2975 2976 2976 2977 2978 2979 2980 2980 2980 2981 2981 2981 2982 2982 2983 2983 2984 2984 2985 2985 2986 2986 2987 2987 2988 2988 2988 2988 2988 2987 2987 2986 2986 2985 2985 2984 2983
2991 2991 2991 2991 2990 2990 2990 2989 2989 2988 2988 2987 2986 2985 2984 2984 2983 2982 2981 2980 2980 2979 2978 2977 2977 2976 2975 2975 2974 2974 2974 2973 2973 2973 2973 2972 2972 2972 2972 2972 2972 2972 2972 2972 2973 2973 2974 2974 2974 2975 2975 2976 2977 2978 2979 2979 2979 2980 2980 2980 2981 2981 2982 2982 2983 2983 2984 2984 2985 2985 2986 2986 2986 2987 2987 2987 2987 2987 2987 2987 2986 2985 2985 2984 2984 2983 2982
2992 2992 2992 2992 2992 2991 2991 2990 2990 2990 2989 2989 2988 2987 2986 2985 2985 2984 2983 2983 2982 2981 2980 2980 2979 2979 2978 2978 2978 2978 2977 2977 2976 2976 2976 2976 2976 2976 2976 2976 2976 2976 2976 2976 2976 2976 2976 2976 2976 2976 2976 2977 2977 2978 2978 2979 2979 2979 2979 2980 2980 2981 2981 2982 2983 2983 2984 2984 2985 2985 2985 2986 2986 2986 2986 2986 2986 2986 2986 2985 2985 2984 2984 2983 2983 2982 2981
2993 2993 2993 2992 2992 2992 2991 2991 2991 2991 2990 2990 2989 2988 2988 2987 2986 2986 2985 2985 2984 2983 2983 2982 2982 2981 2981 2981 2980 2980 2980 2979 2979 2979 2979 2979 2979 2979 2979 2979 2979 2979 2979 2979 2979 2979 2979 2979 2979 2978 2978 2979 2979 2979 2979 2979 2979 2979 2979 2980 2980 2981 2981 2982 2982 2983 2984 2984 2984 2985 2985 2985 2985 2985 2985 2985 2985 2985 2984 2984 2984 2983 2983 2982 2982 2981 2980
2992 2993 2993 2993 2993 2992 2992 2992 2992 2992 2991 2991 2990 2990 2989 2988 2988 2987 2987 2986 2986 2985 2985 2984 2984 2983 2983 2983 2982 2982 2981 2981 2980 2980 2980 2980 2980 2980 2980 2980 2980 2981 2981 2981 2981 2980 2980 2980 2979 2979 2979 2979 2979 2979 2979 2979 2980 2980 2980 2980 2980 2981 2981 2982 2982 2983 2983 2983 2984 2984 2984 2984 2984 2984 2984 2984 2984 2984 2983 2983 2983 2982 2982 2981 2980 2980 2979
2992 2992 2993 2993 2993 2993 2992 2992 2992 2992 2992 2992 2991 2991 2991 2990 2989 2989 2988 2988 2988 2987 2987 2986 2986 2985 2984 2984 2983 2983 2982 2982 2982 2981 2981 2981 2981 2981 2981 2981 2981 2981 2981 2980 2980 2980 2980 2979 2979 2979 2979 2979 2979 2979 2980 2980 2980 2980 2980 2980 2980 2981 2981 2981 2982 2982 2982 2983 2983 2983 2983 2983 2983 2983 2983 2983 2983 2983 2982 2982 2982 2981 2981 2980 2979 2978 2978
2991 2992 2992 2993 2993 2993 2992 2992 2992 2992 2992 2992 2992 2992 2992 2991 2991 2990 2990 2989 2989 2988 2988 2987 2987 2986 2986 2985 2985 2984 2983 2983 2982 2982 2982 2981 2981 2981 2981 2980 2980 2980 2980 2979 2979 2979 2979 2979 2979 2978 2978 2978 2978 2979 2979 2979 2979 2979 2980 2980 2980 2980 2980 2981 2981 2981 2981 2981 2982 2982 2982 2982 2982 2982 2982 2982 2982 2981 2981 2980 2980 2980 2979 2978 2978 2977 2976
2990 2990 2991 2992 2992 2991 2991 2992 2992 2992 2992 2992 2992 2992 2992 2992 2992 2991 2991 2990 2990 2989 2989 2988 2988 2987 2987 2986 2986 2985 2985 2984 2983 2982 2982 2981 2981 2980 2980 2979 2979 2979 2979 2978 2978 2978 2977 2977 2977 2977 2977 2977 2977 2977 2977 2978 2978 2978 2978 2978 2978 2979 2979 2979 2979 2980 2980 2980 2980 2980 2980 2980 2980 2980 2980 2980 2980 2980 2979 2979 2978 2978 2977 2977 2976 2975 2975
2989 2989 2989 2990 2991 2991 2991 2992 2992 2992 2992 2992 2992 2992 2992 2992 2992 2991 2991 2991 2990 2990 2990 2989 2989 2988 2988 2987 2987 2986 2985 2985 2984 2983 2983 2982 2981 2980 2980 2979 2978 2978 2977 2977 2977 2977 2976 2976 2976 2976 2976 2976 2976 2976 2976 2976 2976 2976 2976 2976 2976 2976 2977 2977 2977 2977 2978 2978 2978 2978 2978 2978 2978 2978 2978 2978 2978 2977 2977 2977 2977 2976 2976 2975 2975 2974 2973
2988 2988 2988 2989 2989 2990 2991 2991 2991 2991 2992 2992 2992 2992 2992 2992 2991 2991 2991 2990 2990 2990 2989 2989 2988 2988 2988 2987 2987 2986 2985 2985 2984 2983 2983 2983 2982 2981 2980 2979 2978 2977 2977 2976 2976 2976 2975 2975 2975 2975 2974 2974 2974 2974 2974 2974 2974 2974 2974 2974 2974 2974 2974 2974 2974 2975 2975 2975 2975 2976 2976 2975 2975 2976 2976 2976 2975 2975 2975 2975 2975 2974 2974 2973 2973 2972 2972
2987 2987 2987 2988 2988 2989 2990 2990 2990 2990 2991 2991 2991 2991 2991 2991 2991 2991 2990 2990 2990 2989 2989 2989 2988 2988 2987 2987 2986 2985 2984 2984 2983 2983 2982 2982 2981 2981 2980 2979 2979 2978 2977 2976 2975 2975 2974 2974 2974 2973 2973 2973 2972 2972 2972 2972 2972 2972 2971 2971 2971 2971 2971 2972 2972 2972 2972 2972 2972 2973 2973 2973 2973 2973 2973 2973 2973 2973 2973 2973 2973 2972 2972 2972 2971 2971 2970